User: anonymous   Login
Location: Corcelles
(46.1547°N, 4.7234°E)
Time: 23:12:36
(UTC+00:00)
Language:

SL-24 DEB - Orbit

View from above orbital plane
View from above orbital plane
View from above satellite
View from above satellite

Ground track
Ground track

The orbit data is extracted from the following two-line orbital elements,

1 36510U 10013C   20272.40768874 +.00000357 +00000-0 +68389-4 0  9990
2 36510 092.0246 147.5266 0026830 098.4846 261.9410 14.63213461558461
Epoch (UTC): 28 September 2020 09:47:04
Eccentricity: 0.0026830
inclination: 92.0246°
perigee height: 664 km
apogee height: 702 km
right ascension of ascending node: 147.5266°
argument of perigee: 98.4846°
revolutions per day: 14.63213461
mean anomaly at epoch: 261.9410°
orbit number at epoch: 55846

The dashed part of the orbit path shows where the satellite is in the earth's shadow,  

DLR